owner,sensor,date,latitude,longitude,air_pressure(mBar),qcFlag 
COMPS,ioos:station:USF.COMPS:FHP:1,2019-09-01T00:54:00,28.1530,-82.8010,1014.18,11111222 
COMPS,ioos:station:USF.COMPS:FHP:1,2019-09-01T01:54:00,28.1530,-82.8010,1014.74,11111222 
COMPS,ioos:station:USF.COMPS:FHP:1,2019-09-01T02:54:00,28.1530,-82.8010,1015.01,11111222 
COMPS,ioos:station:USF.COMPS:FHP:1,2019-09-01T03:54:00,28.1530,-82.8010,1015.21,11111222 
COMPS,ioos:station:USF.COMPS:FHP:1,2019-09-01T04:54:00,28.1530,-82.8010,1014.52,11111222 
COMPS,ioos:station:USF.COMPS:FHP:1,2019-09-01T05:54:00,28.1530,-82.8010,1014.45,11111222 
COMPS,ioos:station:USF.COMPS:FHP:1,2019-09-01T06:54:00,28.1530,-82.8010,1014.13,11111222 
COMPS,ioos:station:USF.COMPS:FHP:1,2019-09-01T07:54:00,28.1530,-82.8010,1013.76,11111222 
COMPS,ioos:station:USF.COMPS:FHP:1,2019-09-01T08:54:00,28.1530,-82.8010,1013.74,11111222 
COMPS,ioos:station:USF.COMPS:FHP:1,2019-09-01T09:54:00,28.1530,-82.8010,1014.18,11111222 
COMPS,ioos:station:USF.COMPS:FHP:1,2019-09-01T10:54:00,28.1530,-82.8010,1014.22,11111222 
COMPS,ioos:station:USF.COMPS:FHP:1,2019-09-01T11:54:00,28.1530,-82.8010,1014.52,11111222 
COMPS,ioos:station:USF.COMPS:FHP:1,2019-09-01T12:54:00,28.1530,-82.8010,1014.88,11111222 
COMPS,ioos:station:USF.COMPS:FHP:1,2019-09-01T13:54:00,28.1530,-82.8010,1015.04,11111222 
COMPS,ioos:station:USF.COMPS:FHP:1,2019-09-01T14:54:00,28.1530,-82.8010,1015.05,11111222 
COMPS,ioos:station:USF.COMPS:FHP:1,2019-09-01T15:54:00,28.1530,-82.8010,1014.88,11111222 
COMPS,ioos:station:USF.COMPS:FHP:1,2019-09-01T16:54:00,28.1530,-82.8010,1014.25,11111222 
COMPS,ioos:station:USF.COMPS:FHP:1,2019-09-01T17:54:00,28.1530,-82.8010,1013.44,11111222 
COMPS,ioos:station:USF.COMPS:FHP:1,2019-09-01T18:54:00,28.1530,-82.8010,1013.04,11111222 
COMPS,ioos:station:USF.COMPS:FHP:1,2019-09-01T19:54:00,28.1530,-82.8010,1012.32,11111222 
COMPS,ioos:station:USF.COMPS:FHP:1,2019-09-01T20:54:00,28.1530,-82.8010,1013.09,11111222 
COMPS,ioos:station:USF.COMPS:FHP:1,2019-09-01T21:54:00,28.1530,-82.8010,1012.89,11111222 
COMPS,ioos:station:USF.COMPS:FHP:1,2019-09-01T22:54:00,28.1530,-82.8010,1012.84,11111222 
COMPS,ioos:station:USF.COMPS:FHP:1,2019-09-01T23:54:00,28.1530,-82.8010,1012.9,11111222 
COMPS,ioos:station:USF.COMPS:FHP:1,2019-09-02T00:54:00,28.1530,-82.8010,1013.06,11111222 
COMPS,ioos:station:USF.COMPS:FHP:1,2019-09-02T01:54:00,28.1530,-82.8010,1013.37,11111222 
COMPS,ioos:station:USF.COMPS:FHP:1,2019-09-02T02:54:00,28.1530,-82.8010,1013.42,11111222 
COMPS,ioos:station:USF.COMPS:FHP:1,2019-09-02T03:54:00,28.1530,-82.8010,1012.85,11111222 
COMPS,ioos:station:USF.COMPS:FHP:1,2019-09-02T04:54:00,28.1530,-82.8010,1012.4,11111222 
COMPS,ioos:station:USF.COMPS:FHP:1,2019-09-02T05:54:00,28.1530,-82.8010,1012.12,11111222 
COMPS,ioos:station:USF.COMPS:FHP:1,2019-09-02T06:54:00,28.1530,-82.8010,1011.28,11111222 
COMPS,ioos:station:USF.COMPS:FHP:1,2019-09-02T07:54:00,28.1530,-82.8010,1010.69,11111222 
COMPS,ioos:station:USF.COMPS:FHP:1,2019-09-02T08:54:00,28.1530,-82.8010,1010.4,11111222 
COMPS,ioos:station:USF.COMPS:FHP:1,2019-09-02T09:54:00,28.1530,-82.8010,1010.78,11111222 
COMPS,ioos:station:USF.COMPS:FHP:1,2019-09-02T10:54:00,28.1530,-82.8010,1011.24,11111222 
COMPS,ioos:station:USF.COMPS:FHP:1,2019-09-02T11:54:00,28.1530,-82.8010,1011.26,11111222 
COMPS,ioos:station:USF.COMPS:FHP:1,2019-09-02T14:54:00,28.1530,-82.8010,1012.29,11111222 
COMPS,ioos:station:USF.COMPS:FHP:1,2019-09-02T15:54:00,28.1530,-82.8010,1011.74,11111222 
COMPS,ioos:station:USF.COMPS:FHP:1,2019-09-02T16:54:00,28.1530,-82.8010,1011.13,11111222 
COMPS,ioos:station:USF.COMPS:FHP:1,2019-09-02T17:54:00,28.1530,-82.8010,1010.21,11111222 
COMPS,ioos:station:USF.COMPS:FHP:1,2019-09-02T18:54:00,28.1530,-82.8010,1010.61,11111222 
COMPS,ioos:station:USF.COMPS:FHP:1,2019-09-02T19:54:00,28.1530,-82.8010,1010.0,11111222 
COMPS,ioos:station:USF.COMPS:FHP:1,2019-09-02T20:54:00,28.1530,-82.8010,1009.28,11111222 
COMPS,ioos:station:USF.COMPS:FHP:1,2019-09-02T21:54:00,28.1530,-82.8010,1009.37,11111222 
COMPS,ioos:station:USF.COMPS:FHP:1,2019-09-02T22:54:00,28.1530,-82.8010,1009.09,11111222 
COMPS,ioos:station:USF.COMPS:FHP:1,2019-09-02T23:54:00,28.1530,-82.8010,1009.72,11111222 
COMPS,ioos:station:USF.COMPS:FHP:1,2019-09-03T00:54:00,28.1530,-82.8010,1009.92,11111222 
COMPS,ioos:station:USF.COMPS:FHP:1,2019-09-03T01:54:00,28.1530,-82.8010,1010.41,11111222 
COMPS,ioos:station:USF.COMPS:FHP:1,2019-09-03T02:54:00,28.1530,-82.8010,1010.61,11111222 
COMPS,ioos:station:USF.COMPS:FHP:1,2019-09-03T03:54:00,28.1530,-82.8010,1010.3,11111222 
COMPS,ioos:station:USF.COMPS:FHP:1,2019-09-03T04:54:00,28.1530,-82.8010,1009.88,11111222 
COMPS,ioos:station:USF.COMPS:FHP:1,2019-09-03T05:54:00,28.1530,-82.8010,1009.33,11111222 
COMPS,ioos:station:USF.COMPS:FHP:1,2019-09-03T06:54:00,28.1530,-82.8010,1008.82,11111222 
COMPS,ioos:station:USF.COMPS:FHP:1,2019-09-03T07:54:00,28.1530,-82.8010,1008.42,11111222 
COMPS,ioos:station:USF.COMPS:FHP:1,2019-09-03T08:54:00,28.1530,-82.8010,1008.2,11111222 
COMPS,ioos:station:USF.COMPS:FHP:1,2019-09-03T09:54:00,28.1530,-82.8010,1008.33,11111222 
COMPS,ioos:station:USF.COMPS:FHP:1,2019-09-03T10:54:00,28.1530,-82.8010,1008.68,11111222 
COMPS,ioos:station:USF.COMPS:FHP:1,2019-09-03T11:54:00,28.1530,-82.8010,1009.46,11111222 
COMPS,ioos:station:USF.COMPS:FHP:1,2019-09-03T12:54:00,28.1530,-82.8010,1010.18,11111222 
COMPS,ioos:station:USF.COMPS:FHP:1,2019-09-03T13:54:00,28.1530,-82.8010,1010.49,11111222 
COMPS,ioos:station:USF.COMPS:FHP:1,2019-09-03T14:54:00,28.1530,-82.8010,1010.62,11111222 
COMPS,ioos:station:USF.COMPS:FHP:1,2019-09-03T15:54:00,28.1530,-82.8010,1010.86,11111222 
COMPS,ioos:station:USF.COMPS:FHP:1,2019-09-03T16:54:00,28.1530,-82.8010,1010.72,11111222 
COMPS,ioos:station:USF.COMPS:FHP:1,2019-09-03T17:54:00,28.1530,-82.8010,1009.74,11111222 
COMPS,ioos:station:USF.COMPS:FHP:1,2019-09-03T18:54:00,28.1530,-82.8010,1009.37,11111222 
COMPS,ioos:station:USF.COMPS:FHP:1,2019-09-03T19:54:00,28.1530,-82.8010,1008.72,11111222 
COMPS,ioos:station:USF.COMPS:FHP:1,2019-09-03T20:54:00,28.1530,-82.8010,1008.56,11111222 
COMPS,ioos:station:USF.COMPS:FHP:1,2019-09-03T21:54:00,28.1530,-82.8010,1008.7,11111222 
COMPS,ioos:station:USF.COMPS:FHP:1,2019-09-03T22:54:00,28.1530,-82.8010,1008.73,11111222 
COMPS,ioos:station:USF.COMPS:FHP:1,2019-09-03T23:54:00,28.1530,-82.8010,1009.12,11111222 
COMPS,ioos:station:USF.COMPS:FHP:1,2019-09-04T00:54:00,28.1530,-82.8010,1009.53,11111222 
COMPS,ioos:station:USF.COMPS:FHP:1,2019-09-04T01:54:00,28.1530,-82.8010,1009.68,11111222 
COMPS,ioos:station:USF.COMPS:FHP:1,2019-09-04T02:54:00,28.1530,-82.8010,1009.65,11111222 
COMPS,ioos:station:USF.COMPS:FHP:1,2019-09-04T03:54:00,28.1530,-82.8010,1009.48,11111222 
COMPS,ioos:station:USF.COMPS:FHP:1,2019-09-04T04:54:00,28.1530,-82.8010,1009.24,11111222 
COMPS,ioos:station:USF.COMPS:FHP:1,2019-09-04T05:54:00,28.1530,-82.8010,1008.81,11111222 
COMPS,ioos:station:USF.COMPS:FHP:1,2019-09-04T06:54:00,28.1530,-82.8010,1008.34,11111222 
COMPS,ioos:station:USF.COMPS:FHP:1,2019-09-04T07:54:00,28.1530,-82.8010,1008.22,11111222 
COMPS,ioos:station:USF.COMPS:FHP:1,2019-09-04T08:54:00,28.1530,-82.8010,1008.7,11111222 
COMPS,ioos:station:USF.COMPS:FHP:1,2019-09-04T09:54:00,28.1530,-82.8010,1009.1,11111222 
COMPS,ioos:station:USF.COMPS:FHP:1,2019-09-04T10:54:00,28.1530,-82.8010,1009.44,11111222 
COMPS,ioos:station:USF.COMPS:FHP:1,2019-09-04T11:54:00,28.1530,-82.8010,1009.94,11111222 
COMPS,ioos:station:USF.COMPS:FHP:1,2019-09-04T12:54:00,28.1530,-82.8010,1010.65,11111222 
COMPS,ioos:station:USF.COMPS:FHP:1,2019-09-04T13:54:00,28.1530,-82.8010,1010.73,11111222 
COMPS,ioos:station:USF.COMPS:FHP:1,2019-09-04T14:54:00,28.1530,-82.8010,1011.01,11111222 
COMPS,ioos:station:USF.COMPS:FHP:1,2019-09-04T15:54:00,28.1530,-82.8010,1010.89,11111222 
COMPS,ioos:station:USF.COMPS:FHP:1,2019-09-04T16:54:00,28.1530,-82.8010,1010.77,11111222 
COMPS,ioos:station:USF.COMPS:FHP:1,2019-09-04T17:54:00,28.1530,-82.8010,1010.54,11111222 
COMPS,ioos:station:USF.COMPS:FHP:1,2019-09-04T18:54:00,28.1530,-82.8010,1010.33,11111222 
COMPS,ioos:station:USF.COMPS:FHP:1,2019-09-04T19:54:00,28.1530,-82.8010,1010.4,11111222 
COMPS,ioos:station:USF.COMPS:FHP:1,2019-09-04T20:54:00,28.1530,-82.8010,1010.56,11111222 
COMPS,ioos:station:USF.COMPS:FHP:1,2019-09-04T21:54:00,28.1530,-82.8010,1010.56,11111222 
COMPS,ioos:station:USF.COMPS:FHP:1,2019-09-04T22:54:00,28.1530,-82.8010,1010.52,11111222 
COMPS,ioos:station:USF.COMPS:FHP:1,2019-09-04T23:54:00,28.1530,-82.8010,1010.82,11111222 
COMPS,ioos:station:USF.COMPS:FHP:1,2019-09-05T00:54:00,28.1530,-82.8010,1011.33,11111222 
COMPS,ioos:station:USF.COMPS:FHP:1,2019-09-05T01:54:00,28.1530,-82.8010,1011.78,11111222 
COMPS,ioos:station:USF.COMPS:FHP:1,2019-09-05T02:54:00,28.1530,-82.8010,1012.13,11111222 
COMPS,ioos:station:USF.COMPS:FHP:1,2019-09-05T03:54:00,28.1530,-82.8010,1012.17,11111222 
COMPS,ioos:station:USF.COMPS:FHP:1,2019-09-05T04:54:00,28.1530,-82.8010,1012.12,11111222 
COMPS,ioos:station:USF.COMPS:FHP:1,2019-09-05T05:54:00,28.1530,-82.8010,1012.14,11111222 
COMPS,ioos:station:USF.COMPS:FHP:1,2019-09-05T06:54:00,28.1530,-82.8010,1012.01,11111222 
COMPS,ioos:station:USF.COMPS:FHP:1,2019-09-05T07:54:00,28.1530,-82.8010,1012.08,11111222 
COMPS,ioos:station:USF.COMPS:FHP:1,2019-09-05T08:54:00,28.1530,-82.8010,1012.29,11111222 
COMPS,ioos:station:USF.COMPS:FHP:1,2019-09-05T09:54:00,28.1530,-82.8010,1012.57,11111222 
COMPS,ioos:station:USF.COMPS:FHP:1,2019-09-05T10:54:00,28.1530,-82.8010,1013.0,11111222 
COMPS,ioos:station:USF.COMPS:FHP:1,2019-09-05T11:54:00,28.1530,-82.8010,1013.33,11111222 
COMPS,ioos:station:USF.COMPS:FHP:1,2019-09-05T12:54:00,28.1530,-82.8010,1013.72,11111222 
COMPS,ioos:station:USF.COMPS:FHP:1,2019-09-05T13:54:00,28.1530,-82.8010,1014.36,11111222 
COMPS,ioos:station:USF.COMPS:FHP:1,2019-09-05T14:54:00,28.1530,-82.8010,1014.25,11111222 
COMPS,ioos:station:USF.COMPS:FHP:1,2019-09-05T15:54:00,28.1530,-82.8010,1014.21,11111222 
COMPS,ioos:station:USF.COMPS:FHP:1,2019-09-05T16:54:00,28.1530,-82.8010,1014.12,11111222 
COMPS,ioos:station:USF.COMPS:FHP:1,2019-09-05T17:54:00,28.1530,-82.8010,1013.81,11111222 
COMPS,ioos:station:USF.COMPS:FHP:1,2019-09-05T18:54:00,28.1530,-82.8010,1013.54,11111222 
COMPS,ioos:station:USF.COMPS:FHP:1,2019-09-05T19:54:00,28.1530,-82.8010,1013.24,11111222 
COMPS,ioos:station:USF.COMPS:FHP:1,2019-09-05T20:54:00,28.1530,-82.8010,1013.01,11111222 
COMPS,ioos:station:USF.COMPS:FHP:1,2019-09-05T21:54:00,28.1530,-82.8010,1012.84,11111222 
COMPS,ioos:station:USF.COMPS:FHP:1,2019-09-05T22:54:00,28.1530,-82.8010,1012.73,11111222 
COMPS,ioos:station:USF.COMPS:FHP:1,2019-09-05T23:54:00,28.1530,-82.8010,1012.92,11111222 
COMPS,ioos:station:USF.COMPS:FHP:1,2019-09-06T00:54:00,28.1530,-82.8010,1013.02,11111222 
COMPS,ioos:station:USF.COMPS:FHP:1,2019-09-06T01:54:00,28.1530,-82.8010,1013.57,11111222 
COMPS,ioos:station:USF.COMPS:FHP:1,2019-09-06T02:54:00,28.1530,-82.8010,1013.65,11111222 
COMPS,ioos:station:USF.COMPS:FHP:1,2019-09-06T03:54:00,28.1530,-82.8010,1013.68,11111222 
COMPS,ioos:station:USF.COMPS:FHP:1,2019-09-06T04:54:00,28.1530,-82.8010,1013.6,11111222 
COMPS,ioos:station:USF.COMPS:FHP:1,2019-09-06T06:54:00,28.1530,-82.8010,1012.65,11111222 
COMPS,ioos:station:USF.COMPS:FHP:1,2019-09-06T07:54:00,28.1530,-82.8010,1012.1,11111222 
COMPS,ioos:station:USF.COMPS:FHP:1,2019-09-06T08:54:00,28.1530,-82.8010,1012.08,11111222 
COMPS,ioos:station:USF.COMPS:FHP:1,2019-09-06T09:54:00,28.1530,-82.8010,1012.42,11111222 
COMPS,ioos:station:USF.COMPS:FHP:1,2019-09-06T10:54:00,28.1530,-82.8010,1012.89,11111222 
COMPS,ioos:station:USF.COMPS:FHP:1,2019-09-06T11:54:00,28.1530,-82.8010,1013.12,11111222 
COMPS,ioos:station:USF.COMPS:FHP:1,2019-09-06T12:54:00,28.1530,-82.8010,1013.24,11111222 
COMPS,ioos:station:USF.COMPS:FHP:1,2019-09-06T13:54:00,28.1530,-82.8010,1013.62,11111222 
COMPS,ioos:station:USF.COMPS:FHP:1,2019-09-06T14:54:00,28.1530,-82.8010,1013.97,11111222 
COMPS,ioos:station:USF.COMPS:FHP:1,2019-09-06T15:54:00,28.1530,-82.8010,1013.85,11111222 
COMPS,ioos:station:USF.COMPS:FHP:1,2019-09-06T16:54:00,28.1530,-82.8010,1013.57,11111222 
COMPS,ioos:station:USF.COMPS:FHP:1,2019-09-06T17:54:00,28.1530,-82.8010,1013.32,11111222 
COMPS,ioos:station:USF.COMPS:FHP:1,2019-09-06T18:54:00,28.1530,-82.8010,1012.66,11111222 
COMPS,ioos:station:USF.COMPS:FHP:1,2019-09-06T19:54:00,28.1530,-82.8010,1012.2,11111222 
COMPS,ioos:station:USF.COMPS:FHP:1,2019-09-06T20:54:00,28.1530,-82.8010,1012.08,11111222 
COMPS,ioos:station:USF.COMPS:FHP:1,2019-09-06T21:54:00,28.1530,-82.8010,1012.02,11111222 
COMPS,ioos:station:USF.COMPS:FHP:1,2019-09-06T22:54:00,28.1530,-82.8010,1012.06,11111222 
COMPS,ioos:station:USF.COMPS:FHP:1,2019-09-06T23:54:00,28.1530,-82.8010,1012.02,11111222 
COMPS,ioos:station:USF.COMPS:FHP:1,2019-09-07T00:54:00,28.1530,-82.8010,1012.54,11111222 
COMPS,ioos:station:USF.COMPS:FHP:1,2019-09-07T01:54:00,28.1530,-82.8010,1012.86,11111222 
COMPS,ioos:station:USF.COMPS:FHP:1,2019-09-07T02:54:00,28.1530,-82.8010,1013.45,11111222 
COMPS,ioos:station:USF.COMPS:FHP:1,2019-09-07T03:54:00,28.1530,-82.8010,1013.41,11111222 
COMPS,ioos:station:USF.COMPS:FHP:1,2019-09-07T04:54:00,28.1530,-82.8010,1013.49,11111222 
COMPS,ioos:station:USF.COMPS:FHP:1,2019-09-07T05:54:00,28.1530,-82.8010,1013.2,11111222 
COMPS,ioos:station:USF.COMPS:FHP:1,2019-09-07T06:54:00,28.1530,-82.8010,1012.76,11111222 
COMPS,ioos:station:USF.COMPS:FHP:1,2019-09-07T07:54:00,28.1530,-82.8010,1012.49,11111222 
COMPS,ioos:station:USF.COMPS:FHP:1,2019-09-07T08:54:00,28.1530,-82.8010,1012.57,11111222 
COMPS,ioos:station:USF.COMPS:FHP:1,2019-09-07T09:54:00,28.1530,-82.8010,1013.1,11111222 
COMPS,ioos:station:USF.COMPS:FHP:1,2019-09-07T10:54:00,28.1530,-82.8010,1013.56,11111222 
COMPS,ioos:station:USF.COMPS:FHP:1,2019-09-07T11:54:00,28.1530,-82.8010,1014.18,11111222 
COMPS,ioos:station:USF.COMPS:FHP:1,2019-09-07T12:54:00,28.1530,-82.8010,1014.49,11111222 
COMPS,ioos:station:USF.COMPS:FHP:1,2019-09-07T13:54:00,28.1530,-82.8010,1014.77,11111222 
COMPS,ioos:station:USF.COMPS:FHP:1,2019-09-07T14:54:00,28.1530,-82.8010,1015.04,11111222 
COMPS,ioos:station:USF.COMPS:FHP:1,2019-09-07T15:54:00,28.1530,-82.8010,1014.76,11111222 
COMPS,ioos:station:USF.COMPS:FHP:1,2019-09-07T16:54:00,28.1530,-82.8010,1014.48,11111222 
COMPS,ioos:station:USF.COMPS:FHP:1,2019-09-07T17:54:00,28.1530,-82.8010,1014.32,11111222 
COMPS,ioos:station:USF.COMPS:FHP:1,2019-09-07T18:54:00,28.1530,-82.8010,1013.58,11111222 
COMPS,ioos:station:USF.COMPS:FHP:1,2019-09-07T19:54:00,28.1530,-82.8010,1013.2,11111222 
COMPS,ioos:station:USF.COMPS:FHP:1,2019-09-07T20:54:00,28.1530,-82.8010,1012.93,11111222 
COMPS,ioos:station:USF.COMPS:FHP:1,2019-09-07T21:54:00,28.1530,-82.8010,1012.62,11111222 
COMPS,ioos:station:USF.COMPS:FHP:1,2019-09-07T22:54:00,28.1530,-82.8010,1012.94,11111222 
COMPS,ioos:station:USF.COMPS:FHP:1,2019-09-07T23:54:00,28.1530,-82.8010,1013.17,11111222 
COMPS,ioos:station:USF.COMPS:FHP:1,2019-09-08T00:54:00,28.1530,-82.8010,1013.57,11111222 
COMPS,ioos:station:USF.COMPS:FHP:1,2019-09-08T01:54:00,28.1530,-82.8010,1013.92,11111222 
COMPS,ioos:station:USF.COMPS:FHP:1,2019-09-08T02:54:00,28.1530,-82.8010,1014.2,11111222 
COMPS,ioos:station:USF.COMPS:FHP:1,2019-09-08T03:54:00,28.1530,-82.8010,1014.34,11111222 
COMPS,ioos:station:USF.COMPS:FHP:1,2019-09-08T04:54:00,28.1530,-82.8010,1014.36,11111222 
COMPS,ioos:station:USF.COMPS:FHP:1,2019-09-08T05:54:00,28.1530,-82.8010,1014.56,11111222 
COMPS,ioos:station:USF.COMPS:FHP:1,2019-09-08T06:54:00,28.1530,-82.8010,1014.6,11111222 
COMPS,ioos:station:USF.COMPS:FHP:1,2019-09-08T07:54:00,28.1530,-82.8010,1014.18,11111222 
COMPS,ioos:station:USF.COMPS:FHP:1,2019-09-08T08:54:00,28.1530,-82.8010,1014.37,11111222 
COMPS,ioos:station:USF.COMPS:FHP:1,2019-09-08T09:54:00,28.1530,-82.8010,1015.08,11111222 
COMPS,ioos:station:USF.COMPS:FHP:1,2019-09-08T10:54:00,28.1530,-82.8010,1015.78,11111222 
COMPS,ioos:station:USF.COMPS:FHP:1,2019-09-08T11:54:00,28.1530,-82.8010,1016.57,11111222 
COMPS,ioos:station:USF.COMPS:FHP:1,2019-09-08T12:54:00,28.1530,-82.8010,1016.96,11111222 
COMPS,ioos:station:USF.COMPS:FHP:1,2019-09-08T13:54:00,28.1530,-82.8010,1016.84,11111222 
COMPS,ioos:station:USF.COMPS:FHP:1,2019-09-08T14:54:00,28.1530,-82.8010,1016.94,11111222 
COMPS,ioos:station:USF.COMPS:FHP:1,2019-09-08T15:54:00,28.1530,-82.8010,1017.09,11111222 
COMPS,ioos:station:USF.COMPS:FHP:1,2019-09-08T16:54:00,28.1530,-82.8010,1016.78,11111222 
COMPS,ioos:station:USF.COMPS:FHP:1,2019-09-08T17:54:00,28.1530,-82.8010,1016.45,11111222 
COMPS,ioos:station:USF.COMPS:FHP:1,2019-09-08T18:54:00,28.1530,-82.8010,1016.05,11111222 
COMPS,ioos:station:USF.COMPS:FHP:1,2019-09-08T19:54:00,28.1530,-82.8010,1015.65,11111222 
COMPS,ioos:station:USF.COMPS:FHP:1,2019-09-08T20:54:00,28.1530,-82.8010,1015.56,11111222 
COMPS,ioos:station:USF.COMPS:FHP:1,2019-09-08T21:54:00,28.1530,-82.8010,1015.42,11111222 
COMPS,ioos:station:USF.COMPS:FHP:1,2019-09-08T22:54:00,28.1530,-82.8010,1015.68,11111222 
COMPS,ioos:station:USF.COMPS:FHP:1,2019-09-08T23:54:00,28.1530,-82.8010,1016.0,11111222 
COMPS,ioos:station:USF.COMPS:FHP:1,2019-09-09T00:54:00,28.1530,-82.8010,1016.45,11111222 
COMPS,ioos:station:USF.COMPS:FHP:1,2019-09-09T01:54:00,28.1530,-82.8010,1017.0,11111222 
COMPS,ioos:station:USF.COMPS:FHP:1,2019-09-09T02:54:00,28.1530,-82.8010,1017.36,11111222 
COMPS,ioos:station:USF.COMPS:FHP:1,2019-09-09T03:54:00,28.1530,-82.8010,1017.36,11111222 
COMPS,ioos:station:USF.COMPS:FHP:1,2019-09-09T04:54:00,28.1530,-82.8010,1017.41,11111222 
COMPS,ioos:station:USF.COMPS:FHP:1,2019-09-09T05:54:00,28.1530,-82.8010,1017.38,11111222 
COMPS,ioos:station:USF.COMPS:FHP:1,2019-09-09T06:54:00,28.1530,-82.8010,1017.25,11111222 
COMPS,ioos:station:USF.COMPS:FHP:1,2019-09-09T07:54:00,28.1530,-82.8010,1017.16,11111222 
COMPS,ioos:station:USF.COMPS:FHP:1,2019-09-09T08:54:00,28.1530,-82.8010,1017.74,11111222 
COMPS,ioos:station:USF.COMPS:FHP:1,2019-09-09T09:54:00,28.1530,-82.8010,1017.93,11111222 
COMPS,ioos:station:USF.COMPS:FHP:1,2019-09-09T10:54:00,28.1530,-82.8010,1018.48,11111222 
COMPS,ioos:station:USF.COMPS:FHP:1,2019-09-09T11:54:00,28.1530,-82.8010,1019.08,11111222 
COMPS,ioos:station:USF.COMPS:FHP:1,2019-09-09T12:54:00,28.1530,-82.8010,1019.56,11111222 
COMPS,ioos:station:USF.COMPS:FHP:1,2019-09-09T13:54:00,28.1530,-82.8010,1019.84,11111222 
COMPS,ioos:station:USF.COMPS:FHP:1,2019-09-09T14:54:00,28.1530,-82.8010,1020.18,11111222 
COMPS,ioos:station:USF.COMPS:FHP:1,2019-09-09T15:54:00,28.1530,-82.8010,1020.02,11111222 
COMPS,ioos:station:USF.COMPS:FHP:1,2019-09-09T16:54:00,28.1530,-82.8010,1019.68,11111222 
COMPS,ioos:station:USF.COMPS:FHP:1,2019-09-09T17:54:00,28.1530,-82.8010,1019.41,11111222 
COMPS,ioos:station:USF.COMPS:FHP:1,2019-09-09T20:54:00,28.1530,-82.8010,1017.64,11111222 
COMPS,ioos:station:USF.COMPS:FHP:1,2019-09-09T21:54:00,28.1530,-82.8010,1017.42,11111222 
COMPS,ioos:station:USF.COMPS:FHP:1,2019-09-09T22:54:00,28.1530,-82.8010,1017.94,11111222 
COMPS,ioos:station:USF.COMPS:FHP:1,2019-09-09T23:54:00,28.1530,-82.8010,1018.26,11111222 
COMPS,ioos:station:USF.COMPS:FHP:1,2019-09-10T00:54:00,28.1530,-82.8010,1018.58,11111222 
COMPS,ioos:station:USF.COMPS:FHP:1,2019-09-10T01:54:00,28.1530,-82.8010,1018.9,11111222 
COMPS,ioos:station:USF.COMPS:FHP:1,2019-09-10T02:54:00,28.1530,-82.8010,1020.64,11111222 
COMPS,ioos:station:USF.COMPS:FHP:1,2019-09-10T03:54:00,28.1530,-82.8010,1019.77,11111222 
COMPS,ioos:station:USF.COMPS:FHP:1,2019-09-10T04:54:00,28.1530,-82.8010,1019.5,11111222 
COMPS,ioos:station:USF.COMPS:FHP:1,2019-09-10T05:54:00,28.1530,-82.8010,1019.98,11111222 
COMPS,ioos:station:USF.COMPS:FHP:1,2019-09-10T06:54:00,28.1530,-82.8010,1019.58,11111222 
COMPS,ioos:station:USF.COMPS:FHP:1,2019-09-10T07:54:00,28.1530,-82.8010,1019.5,11111222 
COMPS,ioos:station:USF.COMPS:FHP:1,2019-09-10T08:54:00,28.1530,-82.8010,1019.8,11111222 
COMPS,ioos:station:USF.COMPS:FHP:1,2019-09-10T09:54:00,28.1530,-82.8010,1020.02,11111222 
COMPS,ioos:station:USF.COMPS:FHP:1,2019-09-10T10:54:00,28.1530,-82.8010,1020.44,11111222 
COMPS,ioos:station:USF.COMPS:FHP:1,2019-09-10T11:54:00,28.1530,-82.8010,1021.14,11111222 
COMPS,ioos:station:USF.COMPS:FHP:1,2019-09-10T12:54:00,28.1530,-82.8010,1022.04,11111222 
COMPS,ioos:station:USF.COMPS:FHP:1,2019-09-10T13:54:00,28.1530,-82.8010,1022.42,11111222 
COMPS,ioos:station:USF.COMPS:FHP:1,2019-09-10T14:54:00,28.1530,-82.8010,1022.38,11111222 
COMPS,ioos:station:USF.COMPS:FHP:1,2019-09-10T15:54:00,28.1530,-82.8010,1022.37,11111222 
COMPS,ioos:station:USF.COMPS:FHP:1,2019-09-10T16:54:00,28.1530,-82.8010,1021.81,11111222 
COMPS,ioos:station:USF.COMPS:FHP:1,2019-09-10T17:54:00,28.1530,-82.8010,1021.08,11111222 
COMPS,ioos:station:USF.COMPS:FHP:1,2019-09-10T18:54:00,28.1530,-82.8010,1020.6,11111222 
COMPS,ioos:station:USF.COMPS:FHP:1,2019-09-10T19:54:00,28.1530,-82.8010,1019.98,11111222 
COMPS,ioos:station:USF.COMPS:FHP:1,2019-09-10T20:54:00,28.1530,-82.8010,1019.6,11111222 
COMPS,ioos:station:USF.COMPS:FHP:1,2019-09-10T21:54:00,28.1530,-82.8010,1019.34,11111222 
COMPS,ioos:station:USF.COMPS:FHP:1,2019-09-10T22:54:00,28.1530,-82.8010,1018.93,11111222 
COMPS,ioos:station:USF.COMPS:FHP:1,2019-09-10T23:54:00,28.1530,-82.8010,1019.08,11111222 
COMPS,ioos:station:USF.COMPS:FHP:1,2019-09-11T00:54:00,28.1530,-82.8010,1019.74,11111222 
COMPS,ioos:station:USF.COMPS:FHP:1,2019-09-11T01:54:00,28.1530,-82.8010,1020.38,11111222 
COMPS,ioos:station:USF.COMPS:FHP:1,2019-09-11T02:54:00,28.1530,-82.8010,1020.86,11111222 
COMPS,ioos:station:USF.COMPS:FHP:1,2019-09-11T03:54:00,28.1530,-82.8010,1021.0,11111222 
COMPS,ioos:station:USF.COMPS:FHP:1,2019-09-11T04:54:00,28.1530,-82.8010,1020.9,11111222 
COMPS,ioos:station:USF.COMPS:FHP:1,2019-09-11T05:54:00,28.1530,-82.8010,1020.82,11111222 
COMPS,ioos:station:USF.COMPS:FHP:1,2019-09-11T06:54:00,28.1530,-82.8010,1020.62,11111222 
COMPS,ioos:station:USF.COMPS:FHP:1,2019-09-11T07:54:00,28.1530,-82.8010,1020.13,11111222 
COMPS,ioos:station:USF.COMPS:FHP:1,2019-09-11T08:54:00,28.1530,-82.8010,1020.02,11111222 
COMPS,ioos:station:USF.COMPS:FHP:1,2019-09-11T09:54:00,28.1530,-82.8010,1020.06,11111222 
COMPS,ioos:station:USF.COMPS:FHP:1,2019-09-11T10:54:00,28.1530,-82.8010,1020.41,11111222 
COMPS,ioos:station:USF.COMPS:FHP:1,2019-09-11T11:54:00,28.1530,-82.8010,1020.89,11111222 
COMPS,ioos:station:USF.COMPS:FHP:1,2019-09-11T12:54:00,28.1530,-82.8010,1021.4,11111222 
COMPS,ioos:station:USF.COMPS:FHP:1,2019-09-11T13:54:00,28.1530,-82.8010,1021.26,11111222 
COMPS,ioos:station:USF.COMPS:FHP:1,2019-09-11T14:54:00,28.1530,-82.8010,1020.89,11111222 
COMPS,ioos:station:USF.COMPS:FHP:1,2019-09-11T15:54:00,28.1530,-82.8010,1020.52,11111222 
COMPS,ioos:station:USF.COMPS:FHP:1,2019-09-11T16:54:00,28.1530,-82.8010,1020.13,11111222 
COMPS,ioos:station:USF.COMPS:FHP:1,2019-09-11T17:54:00,28.1530,-82.8010,1019.32,11111222 
COMPS,ioos:station:USF.COMPS:FHP:1,2019-09-11T18:54:00,28.1530,-82.8010,1018.44,11111222 
COMPS,ioos:station:USF.COMPS:FHP:1,2019-09-11T19:54:00,28.1530,-82.8010,1017.45,11111222 
COMPS,ioos:station:USF.COMPS:FHP:1,2019-09-11T20:54:00,28.1530,-82.8010,1017.16,11111222 
COMPS,ioos:station:USF.COMPS:FHP:1,2019-09-11T21:54:00,28.1530,-82.8010,1016.77,11111222 
COMPS,ioos:station:USF.COMPS:FHP:1,2019-09-11T22:54:00,28.1530,-82.8010,1016.48,11111222 
COMPS,ioos:station:USF.COMPS:FHP:1,2019-09-11T23:54:00,28.1530,-82.8010,1016.57,11111222 
COMPS,ioos:station:USF.COMPS:FHP:1,2019-09-12T00:54:00,28.1530,-82.8010,1017.28,11111222 
COMPS,ioos:station:USF.COMPS:FHP:1,2019-09-12T01:54:00,28.1530,-82.8010,1017.74,11111222 
COMPS,ioos:station:USF.COMPS:FHP:1,2019-09-12T02:54:00,28.1530,-82.8010,1017.89,11111222 
COMPS,ioos:station:USF.COMPS:FHP:1,2019-09-12T03:54:00,28.1530,-82.8010,1018.0,11111222 
COMPS,ioos:station:USF.COMPS:FHP:1,2019-09-12T04:54:00,28.1530,-82.8010,1017.8,11111222 
COMPS,ioos:station:USF.COMPS:FHP:1,2019-09-12T05:54:00,28.1530,-82.8010,1017.48,11111222 
COMPS,ioos:station:USF.COMPS:FHP:1,2019-09-12T06:54:00,28.1530,-82.8010,1016.65,11111222 